Regional Weather Roundup
Issued by NWS Charleston, SC

Current Version | Previous Version | Graphics & Text | Print | Product List | Glossary On
Versions: 1 2 3 4 5 6 7 8 9 10 11 12 13 14 15 16 17 18 19 20 21 22 23 24 25 26 27 28 29 30 31 32 33 34 35 36 37 38 39 40 41 42 43 44 45 46 47 48 49 50
000
ASUS42 KCHS 021628
RWRCHS

REGIONAL WEATHER ROUNDUP
NATIONAL WEATHER SERVICE CHARLESTON SC
1200 PM EDT MON MAY 02 2016

NOTE: "FAIR" INDICATES FEW OR NO CLOUDS BELOW 12,000 FEET WITH NO
SIGNIFICANT WEATHER AND/OR OBSTRUCTIONS TO VISIBILITY.

NOT ALL STATIONS ARE QUALITY CONTROLLED. USE DATA WITH CAUTION...
ESPECIALLY DEWPOINT OBSERVATIONS.

SCZ027-030-031-034>040-042>050-021700-
...SOUTHEAST SOUTH CAROLINA...

CITY           SKY/WX    TMP DP  RH WIND       PRES   REMARKS
N CHARLESTON   PTSUNNY   85  68  56 S10       30.05F
WATERFRONT PRK   N/A     78  71  79 SW7       30.04S
MOUNT PLEASANT FAIR      84  70  61 S13       30.05F
JOHNS ISLAND   FAIR      82  72  69 S16       30.06F
PINOPOLIS        N/A     81  72  74 SW6       30.00R
MONCKS CORNER  PTSUNNY   79  64  61 SW7       30.05F
SUMMERVILLE    FAIR      81  70  69 SW3       30.06F
BEAUFORT MCAS  PTSUNNY   83  71  67 S8        30.06S
BEAUFORT ARPT  PTSUNNY   81  70  69 S8        30.05F
HILTON HEAD IS MOSUNNY   79  72  78 S14G23    30.07F
WALTERBORO     CLOUDY    84  68  58 SW10      30.05F
ALLENDALE      FAIR      81  70  69 VRB7G13   30.04S

...SOUTHERN MIDLANDS AND PEE DEE...

CITY           SKY/WX    TMP DP  RH WIND       PRES   REMARKS
GEORGETOWN     PTSUNNY   81  68  65 SW7       30.06F
KINGSTREE      PTSUNNY   81  66  61 S10       30.04F
ORANGEBURG     MOSUNNY   80  69  69 SW10      30.04F
BARNWELL       FAIR      82  75  78 S6        30.04F
AIKEN          FAIR      81  66  61 CALM      30.06F
MANNING        FAIR      79  68  69 S6        30.04F
COLUMBIA       MOSUNNY   81  68  64 S6        30.02F
SUMTER         NOT AVBL
FLORENCE       MOSUNNY   80  67  64 S9        30.04F
MYRTLE BEACH   PTSUNNY   81  66  61 SW6       30.08F
N MYRTLE BEACH MOSUNNY   78  71  79 S9        30.06F

$$

GAZ063-065-086>088-099>101-113>116-118-119-134>141-150-021700-
...SOUTHEAST GEORGIA...

CITY           SKY/WX    TMP DP  RH WIND       PRES   REMARKS
SAVANNAH ARPT  PTSUNNY   83  69  62 SW7       30.05F
HUNTER AAF     NOT AVBL
FORT STEWART   NOT AVBL
STATESBORO     PTSUNNY   85  75  73 S8        30.04S HX  93
SYLVANIA       CLOUDY    80  74  82 SW5       30.05F
CLAXTON        FAIR      82  74  77 S5        30.05S

...CSRA...CENTRAL AND FAR SOUTHEAST GEORGIA...

CITY           SKY/WX    TMP DP  RH WIND       PRES   REMARKS
THOMSON        SUNNY     86  70  59 SW5       30.06S HX  91
AUGUSTA-BUSH   SUNNY     83  68  60 SW6       30.01F
AUGUSTA-DANIEL SUNNY     84  68  58 S8        30.03F
SWAINSBORO     FAIR      82  68  61 SW5       30.04F
VIDALIA        MOSUNNY   81  70  69 S3        30.04S
EASTMAN        FAIR      83  64  51 SW7       30.06S
HAZLEHURST     FAIR      85  71  62 S6        30.03S HX  90
ALMA           MOSUNNY   83  70  64 S8        30.04F
WAYCROSS       MOSUNNY   83  71  67 SW8       30.04F
JESUP          PTSUNNY   86  73  66 W8        30.05F HX  93
BAXLEY         PTSUNNY   84  72  65 SW6       30.03F
BRUNSWICK      SUNNY     88  70  55 S10       30.06S HX  92
SAINT SIMONS   SUNNY     80  72  76 SE8       30.06S

$$

SCZ027-028-034-036>038-045-046-048>050-GAZ119-141-021700-
...LAKE AND SUPPLEMENTAL COASTAL OBSERVATIONS...

STATION/POSITION TIME  TEMP    WIND        PRES    WAVE   SWELL
                       AIR SEA DIR/SP/G            HT/PER HT/PER/DIR
                 (UTC) (F)     (DEG/KT/KT) (MB)    (FT/S) (FT/S/D)
WINYAH BAY       1545   80     210/  8     1017.0S
LAKE MURRAY      1500   74     210/  4/  6 1016.6F
ACE BASIN NERRS  1500   81     160/  1     1018.0S
FORT PULASKI     1600   79 74  170/  8/ 16 1018.1F
SAPELO ISLAND    1600   83     160/  9     1018.0S

$$

ANZ835-935-AMZ111-154-330-350-352-354-370-450-454-472-021700-
...C-MAN AND BUOY OBSERVATIONS...

STATION/POSITION TIME  TEMP    WIND        PRES    WAVE   SWELL
                       AIR SEA DIR/SP/G            HT/PER HT/PER/DIR
                 (UTC) (F)     (DEG/KT/KT) (MB)    (FT/S) (FT/S/D)
BUOY 41004       1550   75 74  230/  4/  6 1018.0F   3/ 9   3/ 9
BUOY 41008       NOT AVBL
FOLLY BEACH CMAN 1600   77     200/  8/  9 1018.3F
CAPERS NEARSHORE 1608   74 74  210/  8/ 10 1018.0F
FRIPP NEARSHORE  1608   75 74  210/ 10/ 12 1017.5F


STATION/POSITION TIME  TEMP    WIND        PRES    WAVE   SWELL
                       AIR SEA DIR/SP/G            HT/PER HT/PER/DIR
                 (UTC) (F)     (DEG/KT/KT) (MB)    (FT/S) (FT/S/D)
5E ST. MARYS GA  1521      74                N/A     2/10
FRYING PAN BUOY  1600   74 72  200/  6/  8 1018.5F
BUOY 41025       1550   74 73  220/ 16/ 19 1017.8S   4/11   3/ 80/11
CAPE LOOKOUT NC  1600   73     210/ 11/ 14 1017.9F
BUOY 41002       1550   74 74  160/ 10/ 14 1020.9F   3/10   3/ 40/10
BUOY 41010       1520   78 79  160/ 10/ 14 1019.2S
ST AUGUSTINE FL  1600   74 73  110/  8/  8 1018.7F


$$




USA.gov is the U.S. government's official web portal to all federal, state and local government web resources and services.